Starlink 32033

operational
NORAD ID: 60144 Int'l Des: 2024-120 Owner: SPXS Country: US Constellation: starlink
LEOCIRCULAR

About Starlink 32033

Description loading...

Live Position

Loading 3D Globe...

Upcoming Passes

Altitude History

Altitude vs Time

uPlot chart will show altitude changes over time

Two-Line Element Set

1 60144U 24120K 25351.29629827 .00001117 00000-0 49863-4 0 9999
2 60144 53.1620 342.4738 0001535 90.2912 269.8265 15.30193753 83761
Epoch: Dec 17, 2025 • Age: 13 hours

Current Status

Altitude 480.1 km
Velocity 7.63 km/s
Sub-Earth Point 50.23°N, 67.99°E
Launch Date Jun 27, 2024
Age 1.4 years
Type internet

Technical Details

Classification Payload
Mass 730.00 kg
Dry Mass 700.00 kg
Total Mass 730.00 kg
Length 0.30 m
Diameter 4.10 m
Span 29.00 m
Shape Box + pan
Manufacturer SPXS
Bus Type Starlink V2M
Phase Status In Orbit
Owner/State SPXS/US

Large Constellations

Loading constellations...